This is the latest recevied weather packets stored in our database for station/object F4HUO-10. If no packets are shown the sender has not sent any weather packets the latest 1 day(s).
| Time | Temp. | Humidity | Pressure | Rain* | Wind** | Luminosity | Snow |
|---|---|---|---|---|---|---|---|
| 1777784850 | 21.11° C | 53% | 1001.1 hPa | - | - | - | - |
| 1777781256 | 21.11° C | 52% | 1001.1 hPa | - | - | - | - |
| 1777777655 | 21.67° C | 52% | 1001.1 hPa | - | - | - | - |
| 1777774053 | 21.11° C | 52% | 1001.5 hPa | - | - | - | - |
| 1777770452 | 21.67° C | 51% | 1001.5 hPa | - | - | - | - |
| 1777766851 | 21.67° C | 51% | 1002.1 hPa | - | - | - | - |
| 1777763249 | 21.67° C | 51% | 1002.4 hPa | - | - | - | - |
| 1777759655 | 21.67° C | 51% | 1002.4 hPa | - | - | - | - |
| 1777756054 | 21.67° C | 51% | 1002.6 hPa | - | - | - | - |
| 1777752452 | 21.67° C | 51% | 1002.7 hPa | - | - | - | - |
| 1777748851 | 21.11° C | 50% | 1002.4 hPa | - | - | - | - |
| 1777745250 | 21.11° C | 50% | 1002.4 hPa | - | - | - | - |
| 1777741648 | 21.11° C | 50% | 1002.6 hPa | - | - | - | - |
| 1777738054 | 21.11° C | 51% | 1002.9 hPa | - | - | - | - |
| 1777734453 | 21.11° C | 51% | 1003.2 hPa | - | - | - | - |
| 1777727250 | 21.11° C | 55% | 1004.6 hPa | - | - | - | - |
| 1777723649 | 21.11° C | 56% | 1005.2 hPa | - | - | - | - |
| 1777720047 | 21.11° C | 56% | 1006 hPa | - | - | - | - |
| 1777716453 | 20° C | 58% | 1006.7 hPa | - | - | - | - |
| 1777712852 | 20° C | 61% | 1007.5 hPa | - | - | - | - |
| 1777709251 | 20° C | 57% | 1007.8 hPa | - | - | - | - |
| 1777705649 | 19.44° C | 57% | 1007.9 hPa | - | - | - | - |
| 1777702048 | 19.44° C | 55% | 1008 hPa | - | - | - | - |
* Rain since midnight (hover to see other rain measurements)
** Current wind speed in m/s (hover to see current wind gust speed)